SCP
0 0 0 0 0 0 0 0 0 0 0 0 0 0 0 0 0 0 0 0 0 0 0 0 0 0 -0 -0 -0 -0 -0 -0 0 0 0 0 0 0 0 0 0 0 0
0 0 0 0 0 0 0 0 0 0 0 0 0 0 0 0 0 0 0 0 0 -0 -0 -0 0 0 0 0 0 0 0 0 0 0 0 0 0 0 0 0 0 0 0
0 0 0 0 0 0 0 0 0 0 0 0 0 0 0 0 0 0 0 0 0 -0 -0 -0 -0 -0 0 0 0 0 0 0 0 0 0 0 0 0 0 0 0 0 0
0 1 0 0 0 0 0 0 0 0 0 0 0 0 1 1 0 0 0 0 0 0 0 0 0 0 0 0 0 0 0 0 0 0 0 0 0 0 0 0 0 0 0
0 1 0 0 0 0 0 0 0 0 0 0 0 0 0 0 0 0 0 0 0 0 0 0 0 0 0 0 0 0 0 0 0 0 0 0 0 0 0 0 0 0 0
0 0 0 1 0 0 0 0 0 0 0 0 0 0 0 0 0 0 0 0 0 0 0 0 0 0 0 0 0 0 0 0 0 0 0 0 0 0 0 0 0 0 0
0 1 1 1 0 0 0 1 1 0 0 0 0 0 0 0 0 0 0 0 0 0 0 0 0 0 0 0 0 0 0 0 0 0 0 0 0 0 0 0 0 0 0
0 1 1 1 1 1 1 1 0 0 0 0 0 0 0 0 0 0 0 0 0 0 0 0 0 0 0 0 0 0 0 0 0 0 0 0 0 0 0 0 0 0 0
1 1 1 1 1 1 1 1 0 0 0 0 0 0 0 0 0 0 0 0 0 0 0 0 0 0 0 0 0 0 0 0 0 0 0 0 0 0 0 0 0 0 0
0 0 1 1 1 1 2 0 0 0 0 0 0 0 0 0 0 0 0 0 0 0 0 0 0 0 0 0 0 0 0 0 0 0 0 0 0 0 0 0 0 0 0
0 0 0 0 0 1 1 1 0 0 0 0 0 0 0 0 0 0 0 0 0 0 0 0 0 0 0 0 0 0 0 0 0 0 0 0 0 0 0 0 0 0 0
0 0 0 0 0 0 0 0 0 0 0 0 0 0 0 0 0 0 0 0 0 0 0 0 0 0 0 0 0 0 0 0 0 0 0 0 0 0 0 0 0 0 0
0 0 0 0 0 0 0 0 0 0 0 0 0 0 0 0 0 0 0 0 0 0 0 0 0 0 0 0 0 0 0 0 0 0 0 0 0 0 0 0 0 0 0
0 0 0 0 0 0 0 0 0 0 0 0 0 0 0 0 0 0 0 0 0 0 0 0 0 0 0 0 0 0 0 0 0 0 0 0 0 0 0 0 0 0 0
0 0 0 0 0 0 0 0 0 0 0 0 0 0 0 0 0 0 0 0 0 0 0 0 0 0 0 0 0 0 0 0 0 0 0 0 0 0 0 0 0 0 0
0 0 0 0 0 0 0 0 0 0 0 0 0 0 0 0 0 0 0 0 0 0 0 0 0 0 0 0 0 0 0 0 0 0 0 0 0 0 0 0 0 0 0
0 0 0 0 0 0 0 0 0 0 0 0 0 0 0 0 0 0 0 0 0 0 0 0 0 0 0 0 0 0 0 0 0 0 0 0 0 0 0 0 0 0 0
0 0 0 0 0 0 0 0 0 0 0 0 0 0 0 0 0 0 0 0 0 0 0 0 0 0 0 0 0 0 0 0 0 0 0 0 0 0 0 0 0 0 0
0 0 0 0 0 0 0 0 0 0 0 0 0 0 0 0 0 0 0 0 0 0 0 0 0 0 0 0 0 0 0 0 0 0 0 0 0 0 0 0 0 0 0
0 0 0 0 0 0 0 0 0 0 0 0 0 0 0 0 0 0 0 0 0 0 0 0 0 0 0 0 0 0 0 0 0 0 0 0 0 0 0 0 0 0 0
0 0 0 0 0 0 0 0 0 0 0 0 0 0 0 0 0 0 0 0 0 0 0 0 0 0 0 0 0 0 0 0 0 0 0 0 0 0 0 0 0 0 0
0 0 0 0 0 0 0 -0 -0 -0 -0 -0 0 0 0 0 0 0 0 0 0 0 0 0 0 0 0 0 0 0 0 0 0 0 0 0 0 0 0 0 0 0 0
0 0 0 0 0 0 0 0 -0 -0 -0 -0 0 0 0 0 0 0 0 0 0 0 0 0 0 0 0 0 0 0 0 0 0 0 0 0 0 0 0 0 0 0 0
0 0 0 0 0 0 0 0 0 0 0 0 -0 -0 0 0 0 0 0 0 0 0 0 0 0 0 0 0 0 0 0 0 0 0 0 0 0 0 0 0 0 0 0
0 0 0 0 0 0 0 -0 -0 -0 -0 -0 -0 -0 -0 -0 0 0 0 0 0 -0 0 0 0 0 0 0 0 0 0 0 0 0 0 0 0 0 0 0 0 0 0
0 0 0 -0 -0 -0 -0 -0 -0 -0 -0 -0 -0 -0 -0 -0 0 0 0 -0 -0 -0 0 0 0 0 0 0 0 0 0 0 0 0 0 0 0 0 0 0 0 0 0
Wind_Speed_500mb
32 31 30 28 26 27 24 25 24 20 16 13 9 7 6 7 9 11 17 20 17 15 14 15 16 16 18 19 21 22 21 18 15 13 12 9 7 6 4 2 2 5 6
35 33 32 30 29 27 26 25 23 20 18 15 12 8 7 7 9 11 12 17 21 21 19 20 21 18 14 18 24 28 28 25 23 21 19 16 13 10 9 9 9 7 8
39 37 34 34 32 29 28 26 25 22 17 14 14 9 9 10 10 22 15 13 18 24 21 20 16 11 11 16 16 24 28 29 29 26 23 22 21 19 17 14 14 14 15
45 47 39 37 35 32 31 27 25 22 19 17 13 13 22 21 25 27 25 29 24 23 23 21 18 18 14 10 12 14 17 22 26 27 25 25 27 24 23 22 20 16 17
52 50 43 40 47 42 36 34 32 28 22 17 17 24 24 22 20 25 27 30 29 24 24 22 21 19 13 15 16 13 18 19 22 28 31 32 31 30 26 28 25 24 24
54 64 45 45 50 40 39 37 34 32 26 21 22 19 27 26 23 23 28 30 26 19 18 8 11 23 19 24 25 25 27 23 27 24 24 29 29 27 28 25 26 27 30
54 66 51 60 56 46 44 51 49 48 35 27 26 18 28 32 33 23 27 24 13 11 9 11 10 5 1 13 16 17 18 24 22 24 27 28 30 29 30 33 30 34 37
62 70 65 61 68 58 64 62 59 46 33 37 30 26 19 22 30 26 18 18 16 13 11 14 14 15 12 7 3 12 16 18 20 21 23 23 23 22 24 28 30 32 33
77 79 80 79 74 68 68 68 64 59 39 40 44 32 22 24 29 24 24 23 21 18 16 13 12 13 13 9 9 1 3 5 7 8 9 11 14 15 17 20 22 25 27
83 84 84 83 82 78 68 72 68 64 53 46 50 49 40 22 31 26 27 24 24 21 18 14 13 13 11 9 10 4 1 2 5 7 7 9 11 13 17 18 20 22 23
89 90 91 90 90 85 86 80 73 67 63 51 50 50 55 34 30 25 41 36 30 28 23 19 18 13 14 12 6 4 2 5 5 8 10 11 14 18 19 20 21 21 25
78 82 85 89 89 91 90 81 76 67 67 69 54 47 47 48 38 37 31 47 40 29 24 21 20 19 14 10 12 7 5 9 10 10 11 13 13 16 18 21 21 23 25
87 86 79 77 74 70 68 72 74 75 76 77 80 54 52 44 38 44 41 45 42 34 28 25 22 20 16 12 9 12 10 14 16 15 15 16 19 21 24 27 29 30 31
99 102 105 88 82 74 63 66 66 72 74 73 72 71 54 48 41 44 46 50 42 34 29 27 24 21 19 17 13 10 16 15 16 17 18 20 21 23 27 32 35 36 38
83 96 97 89 79 68 66 40 46 50 59 62 56 58 48 54 54 42 35 51 41 33 37 32 24 26 20 16 14 10 13 19 18 20 23 24 27 31 34 37 41 44 47
68 78 78 74 74 73 42 34 25 34 42 50 48 47 46 41 44 43 40 44 32 25 32 27 29 26 24 17 16 15 18 20 22 23 27 31 33 34 39 43 46 48 51
48 47 47 52 59 53 50 36 28 26 26 30 38 34 31 30 40 39 46 52 35 32 34 28 31 30 24 19 16 14 16 16 20 28 28 33 36 39 41 44 48 51 53
28 31 36 39 40 46 55 48 37 31 23 22 22 26 22 25 31 36 40 39 38 31 35 39 29 24 21 19 16 18 18 16 20 30 34 38 41 43 44 47 50 53 57
26 28 30 37 48 53 49 52 46 39 32 23 23 23 25 27 31 31 28 26 27 27 27 27 22 18 15 15 16 18 21 19 26 28 36 40 44 46 48 51 55 59 63
21 23 26 33 34 46 51 44 37 34 31 28 28 33 36 32 32 36 35 29 30 27 28 23 17 17 17 19 16 19 20 20 26 28 34 34 36 43 47 50 55 57 61
20 27 28 29 24 26 33 38 36 32 31 33 35 35 35 32 37 31 27 27 30 22 20 19 18 17 17 18 16 16 22 25 27 29 29 28 32 37 41 48 53 55 61
23 25 24 22 28 24 27 32 33 33 29 33 35 30 29 25 25 26 27 25 26 19 17 15 14 14 16 19 19 22 24 28 32 25 31 36 38 44 43 43 50 65 74
24 24 30 30 30 28 36 33 32 32 33 31 30 25 21 21 23 20 19 20 19 20 22 19 16 17 20 22 25 27 26 31 36 34 38 43 38 50 48 51 55 66 76
28 26 27 27 25 30 38 33 27 21 17 21 25 26 19 18 21 20 15 14 14 15 18 21 21 21 25 26 26 27 33 37 36 33 35 54 46 56 54 56 59 66 74
38 34 27 23 27 27 33 37 40 30 20 24 26 24 24 22 21 19 19 20 20 21 28 33 35 36 36 37 39 35 35 36 41 40 38 52 56 61 63 64 61 65 75
18 17 25 32 39 38 43 42 39 32 34 26 25 28 29 28 31 27 26 24 21 21 24 28 25 31 34 38 38 43 37 40 44 48 39 50 58 59 79 65 64 68 74
Wind_Direction_500mb
201 202 200 197 196 201 193 191 192 183 186 182 193 191 200 194 196 198 233 209 227 232 249 258 265 268 266 262 250 243 240 237 241 242 241 244 247 249 260 277 251 234 248
205 203 209 200 201 200 200 199 198 187 188 195 200 190 185 195 182 184 219 212 220 227 243 257 269 258 255 269 254 241 236 234 238 240 240 240 246 256 262 267 271 266 261
208 202 209 207 207 204 203 197 196 196 193 200 201 197 195 194 200 191 180 203 219 225 239 253 247 241 260 306 254 242 241 241 241 242 245 244 243 245 247 252 261 269 276
208 210 210 211 210 207 204 203 205 203 203 207 214 191 199 191 195 209 210 209 214 219 224 235 241 280 280 239 249 241 237 238 243 244 247 254 253 250 249 252 252 257 262
214 212 213 216 218 220 216 210 206 205 212 206 211 229 214 206 200 221 215 212 209 222 230 239 259 272 228 230 229 227 239 246 248 251 257 257 258 259 257 260 259 270 267
218 222 214 217 224 218 217 211 208 212 212 205 203 208 214 209 194 207 204 200 213 207 227 209 250 249 245 240 240 250 249 243 217 241 256 253 245 251 250 258 261 257 268
220 225 215 223 224 215 214 221 222 227 217 196 180 196 207 203 196 195 209 210 188 176 187 168 137 96 218 257 256 252 243 244 256 259 266 270 265 257 256 264 259 264 268
223 227 221 226 229 224 224 225 225 224 212 205 207 199 192 206 209 179 177 172 172 165 157 168 182 167 132 141 245 259 276 284 282 281 277 277 276 274 272 270 273 273 275
232 235 233 233 233 226 227 228 229 229 217 214 206 209 202 220 185 197 178 181 179 174 171 170 161 159 154 126 63 244 257 300 313 311 305 301 298 292 283 277 277 278 279
240 239 238 235 235 230 226 229 229 231 222 215 215 209 209 216 183 177 188 181 179 171 163 162 162 160 138 130 181 206 203 297 312 301 294 294 292 291 288 289 287 283 282
242 239 236 235 235 232 232 232 230 230 228 215 217 213 222 210 200 199 181 182 189 180 176 171 165 167 162 143 161 184 296 312 322 316 301 294 289 290 294 292 295 300 301
242 235 234 235 234 233 231 229 230 231 226 219 216 214 211 205 207 195 191 188 186 180 182 185 175 172 167 178 194 246 296 306 299 290 283 275 278 277 286 288 289 291 294
244 238 229 230 227 226 228 227 227 224 220 221 222 216 208 210 219 203 202 184 178 181 183 185 186 185 181 176 224 281 298 307 302 299 295 290 291 293 295 296 296 296 295
246 243 234 226 223 222 222 222 222 221 222 224 225 221 207 200 204 204 193 176 174 182 192 188 190 193 190 199 244 276 294 299 295 298 299 300 298 295 295 297 297 295 293
245 250 235 235 225 219 212 219 215 211 217 212 210 204 200 206 208 208 192 181 180 179 194 196 190 192 196 221 243 252 267 296 295 297 298 301 301 301 299 297 297 298 296
234 233 233 234 233 227 206 198 194 188 195 189 193 192 195 202 200 195 185 183 187 194 195 203 194 194 193 203 250 262 270 278 280 290 296 298 298 296 295 295 294 295 294
237 229 225 219 215 210 192 175 192 160 181 164 162 173 174 191 192 181 177 181 166 184 180 180 188 195 205 212 241 252 272 273 286 293 296 299 300 299 299 297 296 293 291
197 206 200 197 193 180 179 171 183 180 171 166 162 163 163 186 183 181 183 172 163 163 174 173 177 193 202 224 224 256 267 269 274 288 301 304 303 300 298 297 297 297 296
147 155 168 168 171 172 169 177 181 176 178 171 154 141 168 174 160 169 173 165 164 173 169 167 172 184 205 220 263 278 276 277 292 290 310 309 303 297 296 296 296 296 296
149 143 144 152 159 157 156 153 161 165 157 146 146 157 159 166 167 172 160 152 146 153 158 153 162 194 207 236 240 256 272 283 285 283 287 296 293 303 305 302 300 295 292
136 138 136 130 130 138 148 159 159 156 159 160 161 164 167 171 166 157 152 161 159 152 155 168 183 204 222 235 255 271 275 281 285 292 289 285 285 289 292 297 300 304 296
145 152 154 151 143 149 150 145 148 153 162 168 169 171 174 164 161 171 171 166 162 157 164 184 204 222 240 258 269 276 277 282 285 285 282 286 287 287 289 290 287 286 290
151 156 157 156 148 162 167 166 167 166 168 174 173 173 171 180 174 175 172 175 178 182 190 204 223 243 258 265 268 269 274 275 279 279 282 286 291 289 292 292 291 291 292
153 155 158 162 163 165 167 164 163 153 152 175 183 184 180 181 185 185 194 207 217 239 259 261 261 258 264 260 261 270 272 280 284 290 288 285 290 289 292 291 292 293 293
190 185 177 169 166 175 173 168 172 181 207 210 205 198 207 208 213 219 229 239 247 255 264 264 269 274 270 268 271 269 272 275 277 280 278 282 287 291 295 297 297 295 294
152 152 157 177 177 174 178 193 198 205 220 212 222 216 217 220 231 237 247 253 255 256 259 268 280 266 265 266 265 267 265 268 276 282 282 283 289 295 296 297 297 301 300
Wind_Speed_850mb
32 31 30 28 26 27 24 25 24 20 16 13 9 7 6 7 9 11 17 20 17 15 14 15 16 16 18 19 21 22 21 18 15 13 12 9 7 6 4 2 2 5 6
35 33 32 30 29 27 26 25 23 20 18 15 12 8 7 7 9 11 12 17 21 21 19 20 21 18 14 18 24 28 28 25 23 21 19 16 13 10 9 9 9 7 8
39 37 34 34 32 29 28 26 25 22 17 14 14 9 9 10 10 22 15 13 18 24 21 20 16 11 11 16 16 24 28 29 29 26 23 22 21 19 17 14 14 14 15
45 47 39 37 35 32 31 27 25 22 19 17 13 13 22 21 25 27 25 29 24 23 23 21 18 18 14 10 12 14 17 22 26 27 25 25 27 24 23 22 20 16 17
52 50 43 40 47 42 36 34 32 28 22 17 17 24 24 22 20 25 27 30 29 24 24 22 21 19 13 15 16 13 18 19 22 28 31 32 31 30 26 28 25 24 24
54 64 45 45 50 40 39 37 34 32 26 21 22 19 27 26 23 23 28 30 26 19 18 8 11 23 19 24 25 25 27 23 27 24 24 29 29 27 28 25 26 27 30
54 66 51 60 56 46 44 51 49 48 35 27 26 18 28 32 33 23 27 24 13 11 9 11 10 5 1 13 16 17 18 24 22 24 27 28 30 29 30 33 30 34 37
62 70 65 61 68 58 64 62 59 46 33 37 30 26 19 22 30 26 18 18 16 13 11 14 14 15 12 7 3 12 16 18 20 21 23 23 23 22 24 28 30 32 33
77 79 80 79 74 68 68 68 64 59 39 40 44 32 22 24 29 24 24 23 21 18 16 13 12 13 13 9 9 1 3 5 7 8 9 11 14 15 17 20 22 25 27
83 84 84 83 82 78 68 72 68 64 53 46 50 49 40 22 31 26 27 24 24 21 18 14 13 13 11 9 10 4 1 2 5 7 7 9 11 13 17 18 20 22 23
89 90 91 90 90 85 86 80 73 67 63 51 50 50 55 34 30 25 41 36 30 28 23 19 18 13 14 12 6 4 2 5 5 8 10 11 14 18 19 20 21 21 25
78 82 85 89 89 91 90 81 76 67 67 69 54 47 47 48 38 37 31 47 40 29 24 21 20 19 14 10 12 7 5 9 10 10 11 13 13 16 18 21 21 23 25
87 86 79 77 74 70 68 72 74 75 76 77 80 54 52 44 38 44 41 45 42 34 28 25 22 20 16 12 9 12 10 14 16 15 15 16 19 21 24 27 29 30 31
99 102 105 88 82 74 63 66 66 72 74 73 72 71 54 48 41 44 46 50 42 34 29 27 24 21 19 17 13 10 16 15 16 17 18 20 21 23 27 32 35 36 38
83 96 97 89 79 68 66 40 46 50 59 62 56 58 48 54 54 42 35 51 41 33 37 32 24 26 20 16 14 10 13 19 18 20 23 24 27 31 34 37 41 44 47
68 78 78 74 74 73 42 34 25 34 42 50 48 47 46 41 44 43 40 44 32 25 32 27 29 26 24 17 16 15 18 20 22 23 27 31 33 34 39 43 46 48 51
48 47 47 52 59 53 50 36 28 26 26 30 38 34 31 30 40 39 46 52 35 32 34 28 31 30 24 19 16 14 16 16 20 28 28 33 36 39 41 44 48 51 53
28 31 36 39 40 46 55 48 37 31 23 22 22 26 22 25 31 36 40 39 38 31 35 39 29 24 21 19 16 18 18 16 20 30 34 38 41 43 44 47 50 53 57
26 28 30 37 48 53 49 52 46 39 32 23 23 23 25 27 31 31 28 26 27 27 27 27 22 18 15 15 16 18 21 19 26 28 36 40 44 46 48 51 55 59 63
21 23 26 33 34 46 51 44 37 34 31 28 28 33 36 32 32 36 35 29 30 27 28 23 17 17 17 19 16 19 20 20 26 28 34 34 36 43 47 50 55 57 61
20 27 28 29 24 26 33 38 36 32 31 33 35 35 35 32 37 31 27 27 30 22 20 19 18 17 17 18 16 16 22 25 27 29 29 28 32 37 41 48 53 55 61
23 25 24 22 28 24 27 32 33 33 29 33 35 30 29 25 25 26 27 25 26 19 17 15 14 14 16 19 19 22 24 28 32 25 31 36 38 44 43 43 50 65 74
24 24 30 30 30 28 36 33 32 32 33 31 30 25 21 21 23 20 19 20 19 20 22 19 16 17 20 22 25 27 26 31 36 34 38 43 38 50 48 51 55 66 76
28 26 27 27 25 30 38 33 27 21 17 21 25 26 19 18 21 20 15 14 14 15 18 21 21 21 25 26 26 27 33 37 36 33 35 54 46 56 54 56 59 66 74
38 34 27 23 27 27 33 37 40 30 20 24 26 24 24 22 21 19 19 20 20 21 28 33 35 36 36 37 39 35 35 36 41 40 38 52 56 61 63 64 61 65 75
18 17 25 32 39 38 43 42 39 32 34 26 25 28 29 28 31 27 26 24 21 21 24 28 25 31 34 38 38 43 37 40 44 48 39 50 58 59 79 65 64 68 74
Wind_Direction_850mb
201 202 200 197 196 201 193 191 192 183 186 182 193 191 200 194 196 198 233 209 227 232 249 258 265 268 266 262 250 243 240 237 241 242 241 244 247 249 260 277 251 234 248
205 203 209 200 201 200 200 199 198 187 188 195 200 190 185 195 182 184 219 212 220 227 243 257 269 258 255 269 254 241 236 234 238 240 240 240 246 256 262 267 271 266 261
208 202 209 207 207 204 203 197 196 196 193 200 201 197 195 194 200 191 180 203 219 225 239 253 247 241 260 306 254 242 241 241 241 242 245 244 243 245 247 252 261 269 276
208 210 210 211 210 207 204 203 205 203 203 207 214 191 199 191 195 209 210 209 214 219 224 235 241 280 280 239 249 241 237 238 243 244 247 254 253 250 249 252 252 257 262
214 212 213 216 218 220 216 210 206 205 212 206 211 229 214 206 200 221 215 212 209 222 230 239 259 272 228 230 229 227 239 246 248 251 257 257 258 259 257 260 259 270 267
218 222 214 217 224 218 217 211 208 212 212 205 203 208 214 209 194 207 204 200 213 207 227 209 250 249 245 240 240 250 249 243 217 241 256 253 245 251 250 258 261 257 268
220 225 215 223 224 215 214 221 222 227 217 196 180 196 207 203 196 195 209 210 188 176 187 168 137 96 218 257 256 252 243 244 256 259 266 270 265 257 256 264 259 264 268
223 227 221 226 229 224 224 225 225 224 212 205 207 199 192 206 209 179 177 172 172 165 157 168 182 167 132 141 245 259 276 284 282 281 277 277 276 274 272 270 273 273 275
232 235 233 233 233 226 227 228 229 229 217 214 206 209 202 220 185 197 178 181 179 174 171 170 161 159 154 126 63 244 257 300 313 311 305 301 298 292 283 277 277 278 279
240 239 238 235 235 230 226 229 229 231 222 215 215 209 209 216 183 177 188 181 179 171 163 162 162 160 138 130 181 206 203 297 312 301 294 294 292 291 288 289 287 283 282
242 239 236 235 235 232 232 232 230 230 228 215 217 213 222 210 200 199 181 182 189 180 176 171 165 167 162 143 161 184 296 312 322 316 301 294 289 290 294 292 295 300 301
242 235 234 235 234 233 231 229 230 231 226 219 216 214 211 205 207 195 191 188 186 180 182 185 175 172 167 178 194 246 296 306 299 290 283 275 278 277 286 288 289 291 294
244 238 229 230 227 226 228 227 227 224 220 221 222 216 208 210 219 203 202 184 178 181 183 185 186 185 181 176 224 281 298 307 302 299 295 290 291 293 295 296 296 296 295
246 243 234 226 223 222 222 222 222 221 222 224 225 221 207 200 204 204 193 176 174 182 192 188 190 193 190 199 244 276 294 299 295 298 299 300 298 295 295 297 297 295 293
245 250 235 235 225 219 212 219 215 211 217 212 210 204 200 206 208 208 192 181 180 179 194 196 190 192 196 221 243 252 267 296 295 297 298 301 301 301 299 297 297 298 296
234 233 233 234 233 227 206 198 194 188 195 189 193 192 195 202 200 195 185 183 187 194 195 203 194 194 193 203 250 262 270 278 280 290 296 298 298 296 295 295 294 295 294
237 229 225 219 215 210 192 175 192 160 181 164 162 173 174 191 192 181 177 181 166 184 180 180 188 195 205 212 241 252 272 273 286 293 296 299 300 299 299 297 296 293 291
197 206 200 197 193 180 179 171 183 180 171 166 162 163 163 186 183 181 183 172 163 163 174 173 177 193 202 224 224 256 267 269 274 288 301 304 303 300 298 297 297 297 296
147 155 168 168 171 172 169 177 181 176 178 171 154 141 168 174 160 169 173 165 164 173 169 167 172 184 205 220 263 278 276 277 292 290 310 309 303 297 296 296 296 296 296
149 143 144 152 159 157 156 153 161 165 157 146 146 157 159 166 167 172 160 152 146 153 158 153 162 194 207 236 240 256 272 283 285 283 287 296 293 303 305 302 300 295 292
136 138 136 130 130 138 148 159 159 156 159 160 161 164 167 171 166 157 152 161 159 152 155 168 183 204 222 235 255 271 275 281 285 292 289 285 285 289 292 297 300 304 296
145 152 154 151 143 149 150 145 148 153 162 168 169 171 174 164 161 171 171 166 162 157 164 184 204 222 240 258 269 276 277 282 285 285 282 286 287 287 289 290 287 286 290
151 156 157 156 148 162 167 166 167 166 168 174 173 173 171 180 174 175 172 175 178 182 190 204 223 243 258 265 268 269 274 275 279 279 282 286 291 289 292 292 291 291 292
153 155 158 162 163 165 167 164 163 153 152 175 183 184 180 181 185 185 194 207 217 239 259 261 261 258 264 260 261 270 272 280 284 290 288 285 290 289 292 291 292 293 293
190 185 177 169 166 175 173 168 172 181 207 210 205 198 207 208 213 219 229 239 247 255 264 264 269 274 270 268 271 269 272 275 277 280 278 282 287 291 295 297 297 295 294
152 152 157 177 177 174 178 193 198 205 220 212 222 216 217 220 231 237 247 253 255 256 259 268 280 266 265 266 265 267 265 268 276 282 282 283 289 295 296 297 297 301 300